Weather History for Monarch Pass, CO

Change the Weather History Date:

Wednesday, October 9, 2013

  Actual Average (KGUC) Record (KGUC)
Temperature  
Mean Temperature 39 °F -  
Max Temperature 46 °F 60 °F 71 °F (1996)
Min Temperature 32 °F 24 °F 19 °F (1997)
Degree Days  
Heating Degree Days 26    
Moisture  
Dew Point 19 °F    
Average Humidity 49    
Maximum Humidity 69    
Minimum Humidity 29    
Precipitation  
Precipitation 0.00 in - - ()
Sea Level Pressure  
Sea Level Pressure 30.31 in    
Wind  
Wind Speed 19 mph (SSW)    
Max Wind Speed 26 mph    
Max Gust Speed 37 mph    
Visibility 10 miles    
Events      
Averages and records for this station are not official NWS values.
T = Trace of Precipitation, MM = Missing Value Source: NWS Daily Summary

Daily Weather History Graph

Daily Weather History Graph

Search for Another Location

Airport:

Trip Planner

Search our weather history database for the weather conditions in past years. The results will help you decide how hot, cold, wet, or windy it might be!

Date:

Astronomy

Oct. 09, 2013 Rise Set
Actual Time 7:08 AM MDT 6:35 PM MDT
Civil Twilight 6:42 AM MDT 7:01 PM MDT
Nautical Twilight 6:11 AM MDT 7:32 PM MDT
Astronomical Twilight 5:40 AM MDT 8:03 PM MDT
Moon 12:03 PM MDT (10/9) 10:15 PM MDT (10/9)
Length of Visible Light 12h 19m
Length of Day
11h 26m
Waxing Crescent, 26% of the Moon is Illuminated
Oct 9
Waxing Crescent
Oct 11
First Quarter
Oct 18
Full
Oct 26
Last Quarter
Nov 3
New

Hourly Weather History & Observations

Time (MDT) Temp. Windchill Dew Point Humidity Pressure Visibility Wind Dir Wind Speed Gust Speed Precip Events Conditions
12:15 AM 35.6 °F 23.2 °F 21.2 °F 56% 30.31 in 10.0 mi WSW 26.5 mph 32.2 mph N/A   Mostly Cloudy
12:35 AM 35.6 °F 24.5 °F 21.2 °F 56% 30.32 in 10.0 mi SW 20.7 mph - N/A   Mostly Cloudy
12:55 AM 33.8 °F 22.8 °F 21.2 °F 60% 30.31 in 10.0 mi SW 18.4 mph - N/A   Scattered Clouds
1:15 AM 33.8 °F 22.2 °F 21.2 °F 60% 30.30 in 10.0 mi SW 20.7 mph - N/A   Scattered Clouds
1:35 AM 33.8 °F 22.2 °F 21.2 °F 60% 30.30 in 10.0 mi SW 20.7 mph - N/A   Clear
1:55 AM 33.8 °F 21.9 °F 21.2 °F 60% 30.30 in 10.0 mi SW 21.9 mph - N/A   Scattered Clouds
2:15 AM 33.8 °F 21.6 °F 21.2 °F 60% 30.30 in 10.0 mi SW 23.0 mph - N/A   Scattered Clouds
2:35 AM 33.8 °F 22.2 °F 21.2 °F 60% 30.31 in 10.0 mi SW 20.7 mph - N/A   Clear
2:55 AM 33.8 °F 22.5 °F 21.2 °F 60% 30.30 in 10.0 mi SW 19.6 mph - N/A   Scattered Clouds
3:15 AM 33.8 °F 21.6 °F 21.2 °F 60% 30.30 in 10.0 mi SSW 23.0 mph - N/A   Scattered Clouds
3:35 AM 33.8 °F 21.3 °F 21.2 °F 60% 30.30 in 10.0 mi SSW 24.2 mph - N/A   Scattered Clouds
3:55 AM 33.8 °F 21.0 °F 21.2 °F 60% 30.29 in 10.0 mi SW 25.3 mph 29.9 mph N/A   Scattered Clouds
4:15 AM 33.8 °F 21.3 °F 21.2 °F 60% 30.29 in 10.0 mi SW 24.2 mph - N/A   Clear
4:35 AM 32.0 °F 19.8 °F 21.2 °F 64% 30.29 in 10.0 mi SW 20.7 mph 26.5 mph N/A   Clear
4:55 AM 33.8 °F 22.8 °F 21.2 °F 60% 30.29 in 10.0 mi SSW 18.4 mph - N/A   Clear
5:15 AM 32.0 °F 19.8 °F 21.2 °F 64% 30.29 in 10.0 mi SSW 20.7 mph - N/A   Clear
5:35 AM 32.0 °F 20.1 °F 21.2 °F 64% 30.29 in 10.0 mi SSW 19.6 mph - N/A   Clear
5:55 AM 32.0 °F 18.9 °F 23.0 °F 69% 30.29 in 10.0 mi SSW 24.2 mph - N/A   Clear
6:15 AM 32.0 °F 19.5 °F 21.2 °F 64% 30.29 in 10.0 mi SSW 21.9 mph 27.6 mph N/A   Clear
6:35 AM 32.0 °F 20.5 °F 21.2 °F 64% 30.30 in 10.0 mi SSW 18.4 mph 28.8 mph N/A   Clear
6:55 AM 32.0 °F 22.5 °F 21.2 °F 64% 30.30 in 10.0 mi South 12.7 mph - N/A   Clear
7:15 AM 32.0 °F 22.5 °F 21.2 °F 64% 30.30 in 10.0 mi South 12.7 mph - N/A   Clear
7:35 AM 32.0 °F 21.6 °F 21.2 °F 64% 30.30 in 10.0 mi SSE 15.0 mph - N/A   Clear
7:55 AM 32.0 °F 22.1 °F 23.0 °F 69% 30.31 in 10.0 mi SSE 13.8 mph 20.7 mph N/A   Clear
8:15 AM 33.8 °F 24.8 °F 23.0 °F 65% 30.31 in 10.0 mi South 12.7 mph 21.9 mph N/A   Clear
8:35 AM 33.8 °F 25.3 °F 23.0 °F 65% 30.32 in 10.0 mi South 11.5 mph 25.3 mph N/A   Clear
8:55 AM 35.6 °F 25.2 °F 23.0 °F 60% 30.32 in 10.0 mi South 18.4 mph - N/A   Clear
9:15 AM 35.6 °F 24.8 °F 23.0 °F 60% 30.33 in 10.0 mi South 19.6 mph 26.5 mph N/A   Clear
9:35 AM 37.4 °F 30.8 °F 23.0 °F 56% 30.34 in 10.0 mi South 9.2 mph 19.6 mph N/A   Clear
9:54 AM 39.2 °F 30.5 °F 23.0 °F 52% 30.34 in 10.0 mi South 16.1 mph 21.9 mph N/A   Clear
10:15 AM 39.2 °F 31.6 °F 21.2 °F 49% 30.34 in 10.0 mi SSE 12.7 mph 18.4 mph N/A   Clear
10:34 AM 41.0 °F 33.5 °F 21.2 °F 45% 30.34 in 10.0 mi SSW 13.8 mph 19.6 mph N/A   Clear
10:55 AM 41.0 °F 33.1 °F 21.2 °F 45% 30.34 in 10.0 mi SSW 15.0 mph 19.6 mph N/A   Clear
11:13 AM 41.0 °F 33.1 °F 21.2 °F 45% 30.34 in 10.0 mi SSE 15.0 mph 20.7 mph N/A   Clear
11:35 AM 41.0 °F 36.4 °F 21.2 °F 45% 30.34 in 10.0 mi SSE 6.9 mph 23.0 mph N/A   Scattered Clouds
11:55 AM 42.8 °F 35.4 °F 15.8 °F 34% 30.34 in 10.0 mi South 15.0 mph 25.3 mph N/A   Scattered Clouds
12:15 PM 42.8 °F 35.8 °F 17.6 °F 36% 30.33 in 10.0 mi South 13.8 mph 19.6 mph N/A   Scattered Clouds
12:35 PM 41.0 °F 33.9 °F 15.8 °F 36% 30.33 in 10.0 mi SSW 12.7 mph 26.5 mph N/A   Scattered Clouds
12:55 PM 42.8 °F 33.8 °F 17.6 °F 36% 30.32 in 10.0 mi SW 21.9 mph 28.8 mph N/A   Scattered Clouds
1:14 PM 42.8 °F 35.1 °F 19.4 °F 39% 30.32 in 10.0 mi SSW 16.1 mph 24.2 mph N/A   Scattered Clouds
1:28 PM 42.8 °F 35.4 °F 19.4 °F 39% 30.32 in 10.0 mi SSW 15.0 mph 25.3 mph N/A   Scattered Clouds
1:54 PM 44.6 °F 40.7 °F 19.4 °F 37% 30.30 in 10.0 mi South 6.9 mph 21.9 mph N/A   Scattered Clouds
2:15 PM 44.6 °F 37.2 °F 19.4 °F 37% 30.30 in 10.0 mi SSW 17.3 mph 28.8 mph N/A   Scattered Clouds
2:35 PM 46.4 °F 38.1 °F 17.6 °F 32% 30.29 in 10.0 mi South 24.2 mph 34.5 mph N/A   Clear
2:55 PM 44.6 °F 36.4 °F 17.6 °F 34% 30.30 in 10.0 mi South 20.7 mph 36.8 mph N/A   Clear
3:13 PM 44.6 °F 35.7 °F 17.6 °F 34% 30.30 in 10.0 mi SSW 24.2 mph 31.1 mph N/A   Scattered Clouds
3:35 PM 42.8 °F 33.5 °F 17.6 °F 36% 30.30 in 10.0 mi South 23.0 mph 33.4 mph N/A   Mostly Cloudy
3:55 PM 42.8 °F 35.1 °F 17.6 °F 36% 30.31 in 10.0 mi South 16.1 mph 28.8 mph N/A   Mostly Cloudy
4:15 PM 42.8 °F 35.4 °F 19.4 °F 39% 30.31 in 10.0 mi South 15.0 mph 25.3 mph N/A   Overcast
4:35 PM 42.8 °F 35.4 °F 17.6 °F 36% 30.30 in 10.0 mi South 15.0 mph 23.0 mph N/A   Scattered Clouds
4:54 PM 42.8 °F 35.8 °F 14.0 °F 31% 30.30 in 10.0 mi South 13.8 mph 24.2 mph N/A   Clear
5:14 PM 41.0 °F 31.6 °F 10.4 °F 29% 30.30 in 10.0 mi SSW 20.7 mph - N/A   Clear
5:35 PM 41.0 °F 33.9 °F 12.2 °F 31% 30.30 in 10.0 mi South 12.7 mph 20.7 mph N/A   Clear
5:55 PM 41.0 °F 31.6 °F 10.4 °F 29% 30.31 in 10.0 mi SSW 20.7 mph - N/A   Clear
6:15 PM 39.2 °F 29.6 °F 12.2 °F 33% 30.31 in 10.0 mi SSW 19.6 mph 25.3 mph N/A   Clear
6:35 PM 37.4 °F 27.5 °F 14.0 °F 38% 30.32 in 10.0 mi SSW 18.4 mph 25.3 mph N/A   Clear
6:55 PM 37.4 °F 27.8 °F 12.2 °F 36% 30.33 in 10.0 mi SSW 17.3 mph - N/A   Clear
7:15 PM 37.4 °F 26.9 °F 12.2 °F 36% 30.33 in 10.0 mi SSW 20.7 mph 25.3 mph N/A   Clear
7:35 PM 37.4 °F 28.5 °F 12.2 °F 36% 30.33 in 10.0 mi SSW 15.0 mph - N/A   Clear
7:55 PM 35.6 °F 26.2 °F 12.2 °F 38% 30.32 in 10.0 mi SSW 15.0 mph - N/A   Clear
8:15 PM 35.6 °F 25.5 °F 14.0 °F 41% 30.32 in 10.0 mi SSW 17.3 mph - N/A   Clear
8:35 PM 35.6 °F 25.5 °F 14.0 °F 41% 30.33 in 10.0 mi SSW 17.3 mph - N/A   Clear
8:55 PM 35.6 °F 27.5 °F 14.0 °F 41% 30.33 in 10.0 mi SSW 11.5 mph - N/A   Scattered Clouds
9:15 PM 35.6 °F 29.2 °F 14.0 °F 41% 30.33 in 10.0 mi South 8.1 mph - N/A   Scattered Clouds
9:35 PM 35.6 °F 27.1 °F 14.0 °F 41% 30.33 in 10.0 mi SSW 12.7 mph - N/A   Clear
9:55 PM 35.6 °F 27.5 °F 14.0 °F 41% 30.34 in 10.0 mi SSW 11.5 mph - N/A   Clear
10:15 PM 33.8 °F 25.8 °F 15.8 °F 48% 30.34 in 10.0 mi South 10.4 mph 17.3 mph N/A   Scattered Clouds
10:35 PM 35.6 °F 26.2 °F 17.6 °F 48% 30.34 in 10.0 mi SSW 15.0 mph 23.0 mph N/A   Overcast
10:55 PM 35.6 °F 28.0 °F 17.6 °F 48% 30.34 in 10.0 mi SSW 10.4 mph - N/A   Overcast
11:15 PM 33.8 °F 25.3 °F 19.4 °F 56% 30.35 in 10.0 mi SSW 11.5 mph - N/A   Overcast
11:35 PM 33.8 °F 24.8 °F 17.6 °F 52% 30.33 in 10.0 mi South 12.7 mph - N/A   Overcast
11:55 PM 33.8 °F 27.0 °F 21.2 °F 60% 30.33 in 10.0 mi South 8.1 mph 16.1 mph N/A   Overcast